Location: Ridgway Nature & Science Center
(38.1460°N, 107.7553°W)
Time: 14:14:06
(UTC-07:00)

Hubble Space Telescope - Pass Details

Date: 02 November 2021
Orbit: 534 x 538 km, 28.5° (Epoch: 06 December)

Event Time Altitude Azimuth Distance (km) Brightness Sun altitude
Rises 19:42:55 0° 248° (WSW) 2,658 5.7 -18.6°
Reaches altitude 10° 19:45:34 10° 231° (SW) 1,768 4.2 -19.2°
Maximum altitude 19:48:40 21° 182° (S) 1,229 2.6 -19.8°
Enters shadow 19:49:46 19° 160° (SSE) 1,310 2.6 -20.0°
